Location: Misciano
(43.5000°N, 11.9500°E)
Time: 04:41:39
(UTC+00:00)

COSMOS 2428 - Pass Details

Date: 13 August 2020
Orbit: 844 x 859 km, 70.9° (Epoch: 18 September)

Event Time Altitude Azimuth Distance (km) Brightness Sun altitude
Rises 21:13:12 0° 342° (NNW) 3,435 7.1 -25.6°
Reaches altitude 10° 21:16:03 10° 354° (N) 2,497 6.0 -25.9°
Maximum altitude 21:20:54 28° 52° (NE) 1,573 4.1 -26.4°
Enters shadow 21:21:52 26° 69° (ENE) 1,618 4.0 -26.5°
